{"data":{"norad_id":64619,"intl_designator":"2025-137AB","name":"STARLINK-34416","alt_names":[],"object_type":"PAYLOAD","status":"ACTIVE","operator":null,"country":"US","launch_date":"2025-06-25","launch_site_code":"AFETR","launch_vehicle":null,"mission":null,"orbit_class":"UNKNOWN","rcs_meters":null,"size_class":null,"mass_kg":null,"dimensions":null,"purposes":["comms"],"wikipedia_slug":null,"has_3d_model":false,"image_url":null,"decayed_at":null,"tle_current":{"epoch":"2026-05-24T23:08:00.652416Z","epoch_age_seconds":68385,"freshness":"FRESH","line1":"1 64619U 25137AB  26144.96389644  .00009139  00000+0  32033-3 0  9995","line2":"2 64619  53.1591 340.8854 0001149  83.0652 277.0479 15.30195837 52413","mean_motion":15.30195837,"eccentricity":0.0001149,"inclination_deg":53.1591,"raan_deg":340.8854,"arg_perigee_deg":83.0652,"mean_anomaly_deg":277.0479,"bstar":0.00032033,"rev_number":5241,"period_min":94.105601726323,"perigee_km":474.44004783414,"apogee_km":476.0149509961,"semimajor_km":6853.3644994151,"source":"CELESTRAK","updated_at":"2026-05-25T13:38:20.499824Z"}}}